Regional Weather Roundup
Issued by NWS Newport/Morehead, NC

Current Version | Previous Version | Graphics & Text | Print | Product List | Glossary Off
Versions: 1 2 3 4 5 6 7 8 9 10 11 12 13 14 15 16 17 18 19 20 21 22 23 24 25 26 27 28 29 30 31 32 33 34 35 36 37 38 39 40 41 42 43 44 45 46 47 48 49 50

000
ASUS42 KMHX 030713
RWRMHX
WEATHER ROUNDUP FOR EASTERN NORTH CAROLINA
NATIONAL WEATHER SERVICE NEWPORT/MOREHEAD CITY NC
300 AM EDT TUE MAY 03 2016

NOTE: "FAIR" INDICATES FEW OR NO CLOUDS BELOW 12,000 FEET
WITH NO SIGNIFICANT WEATHER AND/OR OBSTRUCTIONS TO VISIBILITY

NCZ015>017-031-032-045>047-102-103-030800-
NORTH COAST

CITY           SKY/WX    TMP DP  RH WIND       PRES   REMARKS
EDENTON        CLOUDY    71  71 100 SW7       29.86F
ELIZABETH CITY CLOUDY    70  67  90 SW10      29.85F
KITTY HAWK     CLOUDY    72  68  88 SW6       29.85S
MANTEO         NOT AVBL

$$

NCZ045>047-081-094-103-104-030800-
CENTRAL COAST

CITY           SKY/WX    TMP DP  RH WIND       PRES   REMARKS
FRISCO         CLOUDY    71  69  93 SW14G21   29.89F
SWANQUARTER    NOT AVBL

$$

NCZ095-097-098-100-101-030800-
SOUTHERN COAST

CITY           SKY/WX    TMP DP  RH WIND       PRES   REMARKS
BEAUFORT       CLOUDY    71  69  93 S14G22    29.89F
CEDAR ISLAND   NOT AVBL
JACKSONVILLE   CLOUDY    72  68  87 SW8       29.88F
PINEY ISLAND   NOT AVBL
WILMINGTON     MOCLDY    73  69  87 S9        29.88F


$$

NCZ011>013-027>030-043-044-078>080-089-090>093-098-030800-
COASTAL PLAIN

CITY           SKY/WX    TMP DP  RH WIND       PRES   REMARKS
AHOSKIE        CLOUDY    65  63  93 CALM      29.86F
CLINTON        CLOUDY    68  68 100 S3        29.87F
ELIZABETHTOWN  CLOUDY    70  70 100 S6        29.87F
GOLDSBORO      NOT AVBL
GREENVILLE     MOCLDY    70  68  94 SW9       29.88S
HAVELOCK       MOCLDY    73  68  84 SW13      29.89F
KENANSVILLE    CLOUDY    68  67  98 CALM      29.87F FOG
KINSTON        MOCLDY    70  68  94 S10       29.86F
NEW BERN       CLOUDY    72  68  87 S10       29.88F
RICHLANDS      CLOUDY    70  69  97 S7        29.88F
ROCKY MOUNT    CLOUDY    68  65  90 W5        29.87R
WASHINGTON     MOCLDY    70  67  91 SW10      29.85F
WHITEVILLE     CLOUDY    73  70  91 S7        29.87F

$$

AMZ130-135-150-152-154-156-158-170-250-252-270-ANZ085-086-088-633-658-670-030800-
MARINE OBSERVATIONS

STATION/POSITION TIME  TEMP    WIND        PRES    WAVE   SWELL
                       AIR SEA DIR/SP/G            HT/PER HT/PER
                 (UTC) (F)     (DEG/KT/KT) (MB)    (FT/S) (FT/S)
CHESAPEAKE LIGHT 0600   66     290/ 14/ 15 1012.4
64 E VA BEACH    0650   60 54  200/ 12/ 14 1010.8    4/ 9   2/ 9
DUCK             0600   72 67  210/ 12/ 15 1010.8
2 E DUCK         0611      58                N/A     3/11   2/11
OREGON INLET     0600   72 72  190/ 18/ 21 1011.4
13E OREGON INLT  0700      61                N/A     4/ 5   2/10
HATTERAS CG      0600   72 70  210/ 12/ 16 1012.4
DIAMOND BUOY     0650   74 74  210/ 16/ 19 1012.2    4/ 9   2/ 9
CAPE LOOKOUT     0700   71     200/ 14/ 16 1011.9
BEAUFORT LAB     0600   71 68  200/ 13/ 18 1012.0
30 SE NEW RVR IN 0625      70                N/A     4/ 5   2/11
27 SE WRIGHTSVLE 0608   73 72  210/ 17/ 23 1013.1
5 SE WRIGHTSVLE  NOT AVBL
225 S CAPE HAT   0650   74 74  160/ 17/ 19 1016.5    4/10   3/10
41 SE CHARLESTON 0650   77 75  190/ 16/ 17 1012.0    4/ 5   2/ 9

$$




USA.gov is the U.S. government's official web portal to all federal, state and local government web resources and services.